Location: Eenumerhoogte
(53.3420°N, 6.7843°E)
Time: 08:32:56
(UTC+00:00)

Cosmos 44 - Pass Details

Date: 15 May 2026
Orbit: 568 x 782 km, 65.1° (Epoch: 5 June)

Event Time Altitude Azimuth Distance (km) Brightness Sun altitude
Rises 22:31:23 0° 313° (NW) 3,278 7.8 -16.5°
Reaches altitude 10° 22:34:00 10° 305° (NW) 2,342 6.7 -16.6°
Maximum altitude 22:38:49 34° 242° (WSW) 1,249 4.4 -16.8°
Enters shadow 22:41:01 24° 199° (SSW) 1,529 4.6 -16.9°
